Location: *
(37.5724°S, 58.0067°E)
Time: 11:31:47
(UTC+00:00)

USA 229 DEB - Pass Details

Date: 03 December 2021
Orbit: 943 x 1269 km, 63.4° (Epoch: 14 January)

Event Time Altitude Azimuth Distance (km) Brightness Sun altitude
Rises 15:50:48 0° 359° (N) 4,212 6.5 -6.7°
Reaches altitude 10° 15:53:55 10° 7° (N) 3,241 5.8 -7.2°
Maximum altitude 16:00:48 34° 68° (ENE) 1,908 4.5 -8.3°
Drops below altitude 10° 16:07:27 10° 130° (SE) 3,133 6.0 -9.4°
Sets 16:10:23 0° 138° (SE) 4,056 6.7 -9.8°
